Location: Arroyo de la Gargantilla
(40.7496°N, 4.1358°W)
Time: 13:32:17
(UTC+00:00)

Daily predictions for brighter satellites

Satellite Brightness Start Highest point End
(mag) Time Altitude Azimuth Time Altitude Azimuth Time Altitude Azimuth
Cosmos 1833 Rocket 3.2 20:18:05 10° S 20:23:14 39° ESE 20:28:25 10° NE
Okean O Rocket 4.5 20:21:41 10° SW 20:24:05 14° W 20:26:31 10° WNW
H-2A R/B 2.2 20:23:57 10° NNE 20:28:23 60° ESE 20:32:49 10° S
Cosmos 1536 Rocket 4.2 20:25:44 10° SSE 20:29:40 35° E 20:33:39 10° NNE
Cosmos 1703 4.4 20:27:42 10° SE 20:30:53 25° E 20:34:05 10° NE
Okean-O 3.9 20:26:48 10° S 20:30:59 41° W 20:35:11 10° NNW
Cosmos 676 Rocket 4.2 20:27:10 10° NNW 20:32:28 79° WSW 20:37:41 10° SSE
Cosmos 1975 Rocket 4.1 20:31:20 10° SSW 20:35:38 49° W 20:39:55 10° N
Ariane Rocket 3.5 20:32:19 10° SE 20:37:09 46° ENE 20:42:00 10° N
ASTRO E2 4.5 20:35:34 10° SSW 20:37:43 14° SSE 20:39:32 11° SE
IRS-1A Rocket 4.4 20:37:20 10° SSE 20:43:12 71° ENE 20:49:03 10° N
PSLV R/B 3.9 20:39:40 10° NNE 20:43:52 79° ESE 20:48:02 10° S
Landsat 7 4.2 20:40:46 10° S 20:45:25 63° W 20:50:07 10° NNW
Terra 3.7 20:44:34 10° E 20:47:21 16° ENE 20:50:08 10° NNE
CZ-4B R/B 1.0 20:45:02 10° NNE 20:47:53 56° ESE 20:50:44 10° S
SPOT 3 Rocket 4.3 20:44:20 11° SE 20:48:49 38° ENE 20:53:37 10° N
SPOT 5 4.2 20:46:56 11° ESE 20:49:56 21° ENE 20:53:10 10° NNE
ATLAS 2AS CENTAUR R/B 3.1 20:43:18 10° NW 20:50:07 58° WSW 20:56:31 10° SSE
RESURS DK-1 2.5 20:49:30 10° NNW 20:53:36 62° ENE 20:56:54 15° SE
Cosmos 1544 Rocket 3.7 20:50:13 10° N 20:54:34 76° W 20:58:54 10° S
SL-24 R/B 4.4 20:52:19 12° SSE 20:56:23 65° ENE 21:01:22 10° N
Cosmos 1271 Rocket 3.1 20:52:28 10° NNW 20:56:24 65° W 21:00:15 10° S
Cosmos 1455 2.4 20:52:53 10° NNW 20:56:43 70° W 21:00:30 10° S
Cosmos 1331 Rocket 4.0 20:55:06 10° S 21:00:20 66° ESE 21:05:36 10° NNE
Cosmos 1850 Rocket 4.0 20:55:40 10° NNW 21:00:52 71° ENE 21:05:09 15° SSE
Cosmos 2082 Rocket 2.9 20:56:26 10° SSE 21:01:27 33° ESE 21:06:29 10° NE
IRAS Rocket 4.2 20:59:08 10° NNE 21:04:42 67° ESE 21:10:10 10° S
Cosmos 2074 Rocket 4.1 20:59:39 10° N 21:05:53 65° E 21:11:20 14° SSE
Helios 1A Rocket 4.2 21:04:55 16° ESE 21:07:12 26° ENE 21:10:40 10° NNE
Spot 2 Rocket 4.3 21:04:02 16° SE 21:07:32 37° ENE 21:12:12 10° N
Cosmos 2084 Rocket 4.3 21:07:42 10° NNW 21:11:21 35° NE 21:13:53 18° ESE
Nadezhda 1 Rocket 4.1 21:06:41 11° SSE 21:12:17 52° E 21:18:08 10° NNE
GEOS 3 Rocket 3.6 21:09:16 17° SE 21:13:13 89° SW 21:18:22 10° NW
Lacrosse 5 3.6 21:10:49 10° WNW 21:14:54 25° WSW 21:18:59 10° S
Delta 2 Rocket 3.6 21:13:32 10° WSW 21:16:34 32° S 21:17:32 26° SSE
SPOT 1/Viking Rocket 3.9 21:12:07 10° S 21:17:12 62° W 21:22:19 10° NNW
X-37B 0.3 21:21:37 10° WNW 21:24:25 76° NNE 21:25:27 34° E
ERS-1 Rocket 3.5 21:22:06 22° SE 21:25:04 45° ENE 21:29:52 10° N
Cosmos 1656 4.3 21:20:10 10° NW 21:25:27 49° WSW 21:30:07 13° S
Cosmos 1892 4.2 21:26:27 19° E 21:26:44 19° E 21:29:26 10° NE
MetOp-B 4.3 21:23:24 14° S 21:27:57 72° WSW 21:33:20 10° NNW
Meteor 1-21 Rocket 4.2 21:23:26 10° S 21:29:01 81° E 21:34:45 10° NNE
Cosmos 1302 Rocket 4.0 21:27:47 12° S 21:32:27 61° ESE 21:37:34 10° NNE
Cosmos 192 4.2 21:30:51 10° SSW 21:35:43 77° ESE 21:40:37 10° NNE
Cosmos 2228 3.0 21:32:40 10° N 21:36:55 82° W 21:39:22 25° S
SL-8 R/B 3.7 21:32:09 10° WNW 21:36:57 70° SSW 21:39:18 29° SE
Cosmos 1892 Rocket 3.8 21:38:01 30° SSE 21:39:47 48° E 21:43:59 10° NNE
Cosmos 2154 Rocket 3.9 21:34:03 10° N 21:40:18 84° E 21:44:32 22° S
Cosmos 968 Rocket 3.9 21:38:59 10° N 21:44:05 52° ENE 21:46:30 29° SE
Cosmos 1697 Rocket 2.8 21:41:00 10° NNW 21:46:36 72° WSW 21:49:50 26° S
Cosmos 1980 Rocket 2.4 21:41:42 10° NNW 21:47:20 58° ENE 21:50:07 29° SE
Cosmos 1408 2.9 21:48:44 40° ESE 21:48:54 41° E 21:52:10 10° NNE
SL-16 R/B 4.1 21:45:45 10° N 21:49:35 18° NE 21:52:57 11° E
ATLAS 5 CENTAUR R/B 1.2 21:50:51 45° SSE 21:51:29 51° ESE 21:55:20 10° NE
Cosmos 2058 Rocket 3.8 21:47:59 10° N 21:52:10 39° ENE 21:53:20 32° ESE
Resurs 01 Rocket 3.9 21:49:11 10° SW 21:52:26 20° W 21:55:43 10° NW
Cosmos 2369 3.7 21:50:03 10° NNW 21:55:49 77° ENE 21:58:31 33° SSE
CZ-2C R/B 3.5 21:52:01 10° NNE 21:56:32 83° ESE 21:58:47 29° S
USA 267 3.8 21:51:41 10° ENE 21:57:31 34° SE 21:59:31 28° SSE
Meteor 2-1 Rocket 4.3 21:56:06 10° NNW 22:01:37 73° W 22:04:42 27° S
COSMOS 2406 3.9 21:56:00 10° SW 22:01:40 56° WNW 22:07:20 10° NNE
SJ 16-02 3.8 22:01:00 10° NE 22:01:58 11° NE 22:02:57 10° ENE
Cosmos 1825 3.2 22:08:00 31° ENE 22:08:00 31° ENE 22:10:58 10° NNE
Cosmos 1867 3.5 22:07:51 10° NNW 22:13:20 80° ENE 22:15:18 41° SE
Cosmos 1606 Rocket 4.3 22:11:01 10° NNW 22:15:11 47° W 22:16:56 30° SSW
Cosmos 2366 rocket 4.4 22:09:43 10° N 22:15:54 52° ENE 22:18:15 35° SE
Cosmos 1869 4.2 22:14:50 10° NNE 22:18:24 33° ENE 22:18:25 33° ENE
Cosmos 2218 Rocket 4.2 22:16:05 10° N 22:22:24 58° E 22:24:42 38° SE
ARIANE 5 R/B 2.6 22:21:46 52° S 22:22:50 83° WSW 22:27:16 10° NNW
Cosmos 2322 Rocket 3.8 22:19:21 10° N 22:23:52 24° NE 22:26:28 17° E
Terra 2.1 22:22:57 38° SSW 22:24:35 59° W 22:29:18 10° NNW
GP-B 3.0 22:21:25 10° N 22:25:50 67° E 22:26:26 59° SE
Meteor 1-27 4.4 22:20:27 10° N 22:25:56 56° ENE 22:27:28 42° SE
SPOT 5 3.9 22:26:09 25° SW 22:27:49 33° W 22:31:44 10° NNW
USA 276 4.1 22:25:36 10° NW 22:28:06 23° NNE 22:28:42 21° NE
SAR-Lupe-4 4.0 22:26:37 10° NNE 22:29:35 51° ENE 22:29:35 51° ENE
FALCON 9 DEB 4.2 22:27:24 10° NW 22:30:29 37° NNE 22:30:31 37° NE
Cosmos 2344 4.4 22:21:28 10° NW 22:30:56 77° WSW 22:38:18 30° SSE
Cosmos 1959 Rocket 4.5 22:26:23 10° N 22:32:30 66° E 22:34:27 43° SE
Cosmos 2278 3.6 22:31:59 10° NNW 22:37:44 86° ENE 22:39:18 50° SSE
Cosmos 1633 4.0 22:39:00 26° NE 22:39:00 26° NE 22:41:00 10° NNE
Cosmos 1992 Rocket 4.1 22:37:43 35° SSW 22:39:58 75° WNW 22:45:14 10° NNE
Okean 1-7 Rocket 3.5 22:40:57 69° S 22:41:30 89° ESE 22:46:01 10° N
Cosmos 2341 Rocket 4.1 22:35:26 10° NNW 22:41:41 70° W 22:44:11 38° SSW
Cosmos 1758 Rocket 4.5 22:42:24 35° ENE 22:42:24 35° ENE 22:46:00 10° NNE
Cosmos 864 Rocket 4.4 22:36:20 10° N 22:42:33 81° E 22:44:32 47° SSE
Cosmos 2082 Rocket 3.6 22:40:14 10° SW 22:45:26 36° WNW 22:50:40 10° N
SAR-Lupe-1 4.3 22:43:21 10° N 22:46:41 67° NW 22:46:41 67° NW
Cosmos 1486 Rocket 3.9 22:43:53 10° NNW 22:49:08 86° ENE 22:50:04 61° SSE
ASTEX 1 3.6 22:44:52 10° N 22:49:50 69° W 22:51:10 47° SW
Cosmos 1606 4.4 22:51:42 10° NNE 22:54:21 24° ENE 22:54:21 24° ENE
Cosmos-2242 3.8 22:51:26 10° N 22:55:10 38° ENE 22:55:10 38° ENE
Cosmos 1812 Rocket 3.9 22:51:52 10° N 22:56:09 52° ENE 22:56:09 52° ENE
ADEOS Rocket 4.3 22:53:13 28° ESE 22:56:24 41° ENE 23:03:29 10° N
Gbstr 26 Del rocket 3.6 22:58:59 44° ENE 22:58:59 44° ENE 23:02:22 10° NE
Cosmos 2360 Rocket 3.6 22:53:37 10° N 22:58:27 28° NE 23:00:32 22° E
Cosmos 1892 4.5 23:01:15 23° W 23:02:05 25° WNW 23:05:15 10° NNW
Cosmos 2181 Rocket 4.4 23:01:56 33° SW 23:04:38 58° W 23:10:48 10° N
Cosmos 1602 Rocket 3.4 23:05:35 83° N 23:05:35 83° N 23:09:47 10° N
Cosmos 1821 Rocket 4.0 23:03:57 10° N 23:10:08 65° E 23:11:22 53° SE
Cosmos 44 4.3 23:14:09 31° ENE 23:14:09 31° ENE 23:16:55 10° NE
Cosmos 1354 Rocket 3.9 23:13:46 10° NNW 23:19:05 76° ENE 23:19:33 70° ESE
CENTAUR R/B 4.2 23:22:31 15° E 23:22:31 15° E 23:25:02 10° ENE
ALOS 2 3.3 23:21:37 44° ENE 23:21:37 44° ENE 23:25:37 10° N
Cosmos 2237 4.4 23:15:48 10° NNW 23:21:30 63° ENE 23:22:29 54° ESE
Spot 4 3.7 23:21:49 76° E 23:21:55 77° ENE 23:26:43 10° N
Cosmos 1503 Rocket 3.9 23:22:18 10° NNW 23:27:34 74° WSW 23:27:51 72° SW
Cosmos 2058 3.6 23:29:58 49° NE 23:29:58 49° NE 23:33:15 10° NNE
Nadezhda 3 Rocket 3.8 23:28:02 62° S 23:29:10 86° E 23:35:22 10° N
Cosmos 1980 Rocket 3.9 23:26:53 10° NW 23:30:47 19° W 23:31:53 18° WSW
Cosmos 1953 Rocket 4.4 23:33:03 41° ENE 23:33:03 41° ENE 23:36:30 10° NNE
Cosmos 1777 Rocket 4.1 23:27:28 10° NNW 23:32:44 65° ENE 23:33:07 63° E
H-2A R/B 4.0 23:29:25 10° NNE 23:32:48 54° NE 23:32:48 54° NE
Cosmos 2219 Rocket 4.0 23:29:36 10° N 23:34:10 24° NE 23:36:40 18° E
SL-16 R/B 2.1 23:28:38 10° NNW 23:34:19 74° WSW 23:34:48 69° SSW
ATLAS 5 CENTAUR R/B 4.1 23:33:59 10° WNW 23:36:24 16° NW 23:38:59 10° N
SL-4 R/B 3.3 23:40:05 33° N 23:40:05 33° N 23:43:02 10° NE
Cosmos 1825 Rocket 3.8 23:41:10 65° N 23:41:10 65° N 23:44:54 10° N
USA 267 3.5 23:34:16 10° NE 23:40:45 68° NW 23:46:45 12° WSW
SJ 16-02 1.6 23:36:40 10° NNW 23:40:31 65° NW 23:40:31 65° NW
Meteor 2-2 Rocket 4.4 23:37:18 10° N 23:43:19 68° ENE 23:44:11 60° SE
Cosmos 2221 3.6 23:48:37 10° N 23:52:14 38° ENE 23:52:14 38° ENE
